This is the latest recevied weather packets stored in our database for station/object CE3TDM-12. If no packets are shown the sender has not sent any weather packets the latest 10 day(s).
| Time | Temp. | Humidity | Pressure | Rain* | Wind** | Luminosity | Snow |
|---|---|---|---|---|---|---|---|
| 1787848740 | 13.33° C | 49% | 770.8 hPa | - | - | - | - |
| 1787848439 | 13.33° C | 49% | 770.7 hPa | - | - | - | - |
| 1787848138 | 13.33° C | 49% | 770.5 hPa | - | - | - | - |
| 1787847838 | 13.33° C | 48% | 770.8 hPa | - | - | - | - |
| 1787847537 | 12.78° C | 49% | 770.9 hPa | - | - | - | - |
| 1787847237 | 11.67° C | 49% | 770.6 hPa | - | - | - | - |
| 1787846936 | 10.56° C | 51% | 771.1 hPa | - | - | - | - |
| 1787846636 | 10.56° C | 51% | 770.9 hPa | - | - | - | - |
| 1787846335 | 11.11° C | 49% | 770.8 hPa | - | - | - | - |
| 1787846035 | 10.56° C | 50% | 771.1 hPa | - | - | - | - |
| 1787845734 | 9.44° C | 51% | 770.5 hPa | - | - | - | - |
| 1787845434 | 9.44° C | 51% | 770.4 hPa | - | - | - | - |
| 1787845133 | 8.89° C | 51% | 770.8 hPa | - | - | - | - |
| 1787844833 | 8.89° C | 51% | 770.8 hPa | - | - | - | - |
| 1787844533 | 8.89° C | 51% | 770.5 hPa | - | - | - | - |
| 1787844230 | 8.33° C | 51% | 770.7 hPa | - | - | - | - |
| 1787843928 | 7.22° C | 53% | 770.9 hPa | - | - | - | - |
| 1787843628 | 7.22° C | 53% | 770.7 hPa | - | - | - | - |
| 1787843328 | 7.78° C | 53% | 771 hPa | - | - | - | - |
| 1787843030 | 7.22° C | 53% | 771 hPa | - | - | - | - |
| 1787842725 | 7.22° C | 53% | 771 hPa | - | - | - | - |
| 1787842425 | 7.22° C | 53% | 771 hPa | - | - | - | - |
| 1787842124 | 7.22° C | 53% | 770.7 hPa | - | - | - | - |
| 1787841823 | 7.22° C | 53% | 771.1 hPa | - | - | - | - |
| 1787841520 | 7.22° C | 53% | 771 hPa | - | - | - | - |
* Rain since midnight (hover to see other rain measurements)
** Current wind speed in m/s (hover to see current wind gust speed)